Back to catalog

STARLINK-5999

AliveCommunicationsVLEO
NORAD 56909·PAYLOAD·🇺🇸 United States

Launched Jun 12, 2023 from Cape Canaveral Space Force Station

Loading…

Next Passes (next 24 hours)

TLE

FreshSource: CelesTrak SupGP

Epoch: Sep 14, 2026, 13:50 UTC

1 56909C 23083AK  26257.57687500 -.00001896  00000+0 -68683-4 0  2572
2 56909  43.0012  84.3649 0001821 259.4986  10.1451 15.27575519    10

Track STARLINK-5999 in real time with AllMySat

Download on the App Store